Weather History for Caldwell, ID

Change the Weather History Date:

Thursday, October 3, 2013

  Actual Average (KBOI) Record (KBOI)
Temperature  
Mean Temperature 49 °F 58 °F  
Max Temperature 57 °F 71 °F 91 °F (1963)
Min Temperature 41 °F 45 °F 28 °F (1877)
Degree Days  
Heating Degree Days 16 8  
Month to date heating degree days 22  
Since 1 July heating degree days 143  
Cooling Degree Days 0 1  
Month to date cooling degree days 3  
Year to date cooling degree days 937  
Moisture  
Dew Point 28 °F    
Average Humidity 47    
Maximum Humidity 57    
Minimum Humidity 33    
Precipitation  
Precipitation 0.00 in 0.02 in 1.08 in (1901)
Month to date precipitation 0.06  
Year to date precipitation 8.14  
Snow  
Snow 0.00 in 0.00 in 0.00 in (2006)
Month to date snowfall 0.0  
Since 1 July snowfall 0.0  
Snow Depth -    
Sea Level Pressure  
Sea Level Pressure 30.07 in    
Wind  
Wind Speed 15 mph (NW)    
Max Wind Speed 25 mph    
Max Gust Speed 33 mph    
Visibility 10 miles    
Events      
T = Trace of Precipitation, MM = Missing Value Source: NWS Daily Summary

Daily Weather History Graph

Daily Weather History Graph

Search for Another Location

Airport:

Trip Planner

Search our weather history database for the weather conditions in past years. The results will help you decide how hot, cold, wet, or windy it might be!

Date:

Astronomy

Oct. 03, 2013 Rise Set
Actual Time 7:46 AM MDT 7:23 PM MDT
Civil Twilight 7:18 AM MDT 7:51 PM MDT
Nautical Twilight 6:44 AM MDT 8:25 PM MDT
Astronomical Twilight 6:11 AM MDT 8:58 PM MDT
Moon 6:23 AM MDT (10/3) 6:34 PM MDT (10/3)
Length of Visible Light 12h 33m
Length of Day
11h 36m
Waning Crescent, 2% of the Moon is Illuminated
Oct 3
Waning Crescent
Oct 4
New
Oct 11
First Quarter
Oct 18
Full
Oct 26
Last Quarter

Hourly Weather History & Observations

Time (MDT) Temp. Windchill Dew Point Humidity Pressure Visibility Wind Dir Wind Speed Gust Speed Precip Events Conditions
12:15 AM 46.4 °F 40.7 °F 28.4 °F 50% 29.93 in 10.0 mi WNW 12.7 mph - N/A   Mostly Cloudy
12:35 AM 44.6 °F 38.4 °F 28.4 °F 53% 29.94 in 10.0 mi WNW 12.7 mph - N/A   Partly Cloudy
12:55 AM 44.6 °F 38.8 °F 28.4 °F 53% 29.94 in 10.0 mi WNW 11.5 mph - N/A   Clear
1:15 AM 44.6 °F 38.1 °F 28.4 °F 53% 29.94 in 10.0 mi WNW 13.8 mph - N/A   Clear
1:35 AM 44.6 °F 37.4 °F 28.4 °F 53% 29.94 in 10.0 mi WNW 16.1 mph 20.7 mph N/A   Mostly Cloudy
1:55 AM 46.4 °F 40.1 °F 28.4 °F 50% 29.95 in 10.0 mi WNW 15.0 mph - N/A   Overcast
2:15 AM 46.4 °F 39.5 °F 28.4 °F 50% 29.96 in 10.0 mi WNW 17.3 mph - N/A   Overcast
2:35 AM 46.4 °F 40.4 °F 28.4 °F 50% 29.97 in 10.0 mi WNW 13.8 mph - N/A   Overcast
2:55 AM 44.6 °F 38.4 °F 28.4 °F 53% 29.98 in 10.0 mi WNW 12.7 mph - N/A   Overcast
3:15 AM 44.6 °F 37.8 °F 28.4 °F 53% 29.98 in 10.0 mi NW 15.0 mph 19.6 mph N/A   Overcast
3:35 AM 44.6 °F 39.7 °F 28.4 °F 53% 29.98 in 10.0 mi WNW 9.2 mph - N/A   Mostly Cloudy
3:55 AM 44.6 °F 39.2 °F 28.4 °F 53% 29.99 in 10.0 mi WNW 10.4 mph - N/A   Mostly Cloudy
4:15 AM 44.6 °F 38.8 °F 28.4 °F 53% 29.99 in 10.0 mi West 11.5 mph - N/A   Overcast
4:55 AM 44.6 °F 39.7 °F 26.6 °F 49% 29.99 in 10.0 mi WNW 9.2 mph - N/A   Overcast
5:15 AM 42.8 °F 37.0 °F 26.6 °F 53% 30.00 in 10.0 mi WNW 10.4 mph - N/A   Overcast
5:35 AM 42.8 °F 38.0 °F 26.6 °F 53% 30.00 in 10.0 mi WNW 8.1 mph - N/A   Overcast
5:55 AM 42.8 °F 37.5 °F 26.6 °F 53% 30.00 in 10.0 mi WNW 9.2 mph - N/A   Mostly Cloudy
6:15 AM 42.8 °F 37.5 °F 26.6 °F 53% 30.00 in 10.0 mi WNW 9.2 mph - N/A   Scattered Clouds
6:35 AM 41.0 °F 35.2 °F 26.6 °F 57% 30.01 in 10.0 mi WNW 9.2 mph - N/A   Clear
6:55 AM 41.0 °F 34.7 °F 26.6 °F 57% 30.01 in 10.0 mi WNW 10.4 mph - N/A   Clear
7:15 AM 41.0 °F 35.2 °F 26.6 °F 57% 30.02 in 10.0 mi WNW 9.2 mph - N/A   Partly Cloudy
7:35 AM 41.0 °F 34.3 °F 26.6 °F 57% 30.02 in 10.0 mi WNW 11.5 mph - N/A   Partly Cloudy
7:55 AM 41.0 °F 33.9 °F 26.6 °F 57% 30.02 in 10.0 mi WNW 12.7 mph - N/A   Partly Cloudy
8:15 AM 42.8 °F 35.8 °F 26.6 °F 53% 30.03 in 10.0 mi WNW 13.8 mph 18.4 mph N/A   Clear
8:35 AM 42.8 °F 36.2 °F 26.6 °F 53% 30.04 in 10.0 mi WNW 12.7 mph - N/A   Mostly Cloudy
8:55 AM 42.8 °F 36.2 °F 26.6 °F 53% 30.04 in 10.0 mi WNW 12.7 mph - N/A   Overcast
9:15 AM 44.6 °F 37.4 °F 28.4 °F 53% 30.05 in 10.0 mi WNW 16.1 mph - N/A   Overcast
9:35 AM 44.6 °F 37.4 °F 28.4 °F 53% 30.05 in 10.0 mi WNW 16.1 mph - N/A   Mostly Cloudy
9:55 AM 44.6 °F 37.4 °F 28.4 °F 53% 30.05 in 10.0 mi WNW 16.1 mph 24.2 mph N/A   Scattered Clouds
10:15 AM 46.4 °F 39.2 °F 28.4 °F 50% 30.05 in 10.0 mi WNW 18.4 mph 24.2 mph N/A   Mostly Cloudy
10:35 AM 46.4 °F 38.5 °F 28.4 °F 50% 30.05 in 10.0 mi NW 21.9 mph 27.6 mph N/A   Overcast
10:55 AM 48.2 °F - 30.2 °F 50% 30.05 in 10.0 mi NW 19.6 mph 32.2 mph N/A   Overcast
11:15 AM 48.2 °F - 30.2 °F 50% 30.05 in 10.0 mi NW 21.9 mph 31.1 mph N/A   Mostly Cloudy
11:35 AM 50.0 °F - 30.2 °F 47% 30.05 in 10.0 mi NW 21.9 mph 33.4 mph N/A   Partly Cloudy
11:55 AM 53.6 °F - 30.2 °F 41% 30.05 in 10.0 mi NW 24.2 mph 31.1 mph N/A   Partly Cloudy
12:15 PM 53.6 °F - 30.2 °F 41% 30.05 in 10.0 mi NW 24.2 mph 33.4 mph N/A   Mostly Cloudy
12:35 PM 51.8 °F - 28.4 °F 41% 30.05 in 10.0 mi NW 21.9 mph 33.4 mph N/A   Overcast
12:55 PM 51.8 °F - 28.4 °F 41% 30.06 in 10.0 mi NW 25.3 mph 29.9 mph N/A   Overcast
1:15 PM 51.8 °F - 28.4 °F 41% 30.06 in 10.0 mi NNW 24.2 mph 29.9 mph N/A   Overcast
1:35 PM 51.8 °F - 28.4 °F 41% 30.07 in 10.0 mi NW 20.7 mph 32.2 mph N/A   Overcast
1:55 PM 51.8 °F - 28.4 °F 41% 30.07 in 10.0 mi NW 24.2 mph 32.2 mph N/A   Overcast
2:15 PM 53.6 °F - 28.4 °F 38% 30.07 in 10.0 mi NW 19.6 mph 31.1 mph N/A   Overcast
2:35 PM 53.6 °F - 30.2 °F 41% 30.07 in 10.0 mi NNW 20.7 mph 31.1 mph N/A   Overcast
2:55 PM 55.4 °F - 30.2 °F 38% 30.07 in 10.0 mi NW 21.9 mph 33.4 mph N/A   Overcast
3:15 PM 55.4 °F - 30.2 °F 38% 30.07 in 10.0 mi NW 20.7 mph 28.8 mph N/A   Overcast
3:35 PM 55.4 °F - 30.2 °F 38% 30.07 in 10.0 mi NNW 20.7 mph 31.1 mph N/A   Overcast
3:55 PM 55.4 °F - 28.4 °F 36% 30.08 in 10.0 mi NNW 17.3 mph 28.8 mph N/A   Mostly Cloudy
4:15 PM 55.4 °F - 30.2 °F 38% 30.08 in 10.0 mi NNW 21.9 mph 31.1 mph N/A   Mostly Cloudy
4:35 PM 55.4 °F - 30.2 °F 38% 30.08 in 10.0 mi NNW 20.7 mph 29.9 mph N/A   Mostly Cloudy
4:55 PM 57.2 °F - 30.2 °F 36% 30.09 in 10.0 mi NW 19.6 mph 31.1 mph N/A   Overcast
5:15 PM 57.2 °F - 28.4 °F 33% 30.10 in 10.0 mi NNW 20.7 mph 27.6 mph N/A   Mostly Cloudy
5:35 PM 57.2 °F - 28.4 °F 33% 30.10 in 10.0 mi NNW 20.7 mph 29.9 mph N/A   Overcast
5:55 PM 55.4 °F - 30.2 °F 38% 30.11 in 10.0 mi NNW 21.9 mph 26.5 mph N/A   Mostly Cloudy
6:15 PM 57.2 °F - 28.4 °F 33% 30.12 in 10.0 mi NNW 19.6 mph 27.6 mph N/A   Mostly Cloudy
6:35 PM 55.4 °F - 28.4 °F 36% 30.12 in 10.0 mi NNW 17.3 mph 28.8 mph N/A   Partly Cloudy
6:55 PM 53.6 °F - 30.2 °F 41% 30.14 in 10.0 mi NNW 20.7 mph 26.5 mph N/A   Clear
7:15 PM 53.6 °F - 28.4 °F 38% 30.15 in 10.0 mi NNW 18.4 mph 26.5 mph N/A   Clear
7:35 PM 51.8 °F - 28.4 °F 41% 30.16 in 10.0 mi NNW 16.1 mph 23.0 mph N/A   Clear
7:55 PM 50.0 °F - 30.2 °F 47% 30.17 in 10.0 mi NNW 13.8 mph 21.9 mph N/A   Clear
8:15 PM 48.2 °F - 28.4 °F 46% 30.19 in 10.0 mi NNW 13.8 mph 18.4 mph N/A   Clear
8:35 PM 48.2 °F - 28.4 °F 46% 30.20 in 10.0 mi NNW 15.0 mph 21.9 mph N/A   Clear
8:55 PM 48.2 °F - 28.4 °F 46% 30.21 in 10.0 mi NNW 15.0 mph 19.6 mph N/A   Clear
9:15 PM 48.2 °F - 28.4 °F 46% 30.22 in 10.0 mi NNW 13.8 mph - N/A   Clear
9:35 PM 46.4 °F 40.4 °F 28.4 °F 50% 30.22 in 10.0 mi NNW 13.8 mph - N/A   Clear
10:35 PM 44.6 °F 39.7 °F 28.4 °F 53% 30.25 in 10.0 mi NW 9.2 mph - N/A   Clear
10:55 PM 44.6 °F 38.1 °F 28.4 °F 53% 30.25 in 10.0 mi NNW 13.8 mph - N/A   Clear
11:15 PM 44.6 °F 38.4 °F 28.4 °F 53% 30.26 in 10.0 mi NNW 12.7 mph - N/A   Clear
11:35 PM 44.6 °F 39.2 °F 28.4 °F 53% 30.27 in 10.0 mi NW 10.4 mph - N/A   Clear
11:55 PM 44.6 °F 39.7 °F 28.4 °F 53% 30.28 in 10.0 mi NW 9.2 mph - N/A   Clear